Список аэропортов
Фактическая погода:

21 апреля, 19:00
Температура: +16°C (+14.8*)
Ветер: сев.-западный 6 м/с
Давление: *760 мм
неб. 600 м
Время (МСК)Темп. СВетерВлажностьДавлениеОблачностьОсадки
15:00+16З, 9 м/с42%1014 гПаясно
16:00+16З, 9 м/с40%1014 гПаясно
17:00+16З, 9 м/с40%1014 гПаясно
18:00+16З, 9 м/с42%1014 гПаясно
19:00+16З, 8 м/с46%1014 гПаясно
20:00+16З, 11 м/с60%1015 гПас прояснениями
21:00+15З, 10 м/с62%1015 гПамалооблачно
22:00+15З, 10 м/с64%1015 гПаясно
23:00+15З, 9 м/с62%1015 гПаясно
22 апреля
00:00+16З, 9 м/с63%1015 гПаясно
01:00+16З, 8 м/с66%1014 гПаясно
02:00+15З, 7 м/с72%1014 гПас прояснениямисл. дождь
03:00+15З, 5 м/с78%1013 гПас прояснениями
04:00+14З, 5 м/с83%1013 гПас прояснениями
05:00+14З, 5 м/с85%1012 гПас прояснениями
06:00+14З, 4 м/с84%1012 гПаясно
07:00+14СЗ, 4 м/с69%1012 гПаясно
08:00+15СЗ, 5 м/с57%1013 гПаясно
09:00+16З, 7 м/с53%1013 гПаясно
10:00+17З, 7 м/с53%1013 гПаясно
11:00+17З, 7 м/с51%1014 гПаясно
12:00+17З, 8 м/с48%1014 гПаясно
13:00+17З, 8 м/с48%1015 гПаясно
14:00+17З, 9 м/с50%1015 гПаясно
15:00+17З, 9 м/с50%1015 гПаясно
16:00+17З, 9 м/с49%1016 гПаясно
17:00+17З, 8 м/с49%1016 гПаясно
18:00+17З, 8 м/с49%1016 гПаясно
19:00+16З, 8 м/с50%1017 гПаясно
20:00+16З, 7 м/с56%1018 гПаясно
21:00+16З, 6 м/с62%1018 гПаясно
22:00+16З, 4 м/с66%1018 гПаясно
23:00+15З, 4 м/с69%1019 гПаясно
23 апреля
00:00+15З, 4 м/с71%1020 гПаясно
01:00+14СЗ, 3 м/с74%1020 гПамалооблачно
02:00+14СЗ, 3 м/с76%1020 гПамалооблачно
03:00+14СЗ, 3 м/с78%1020 гПаясно
04:00+14СЗ, 3 м/с79%1020 гПаясно
05:00+13С, 3 м/с80%1020 гПаясно
06:00+13С, 3 м/с75%1020 гПаясно
07:00+13С, 3 м/с65%1020 гПаясно
08:00+15С, 2 м/с50%1021 гПаясно
09:00+17СЗ, 1 м/с43%1022 гПамалооблачно
10:00+18ЮЗ, 2 м/с47%1023 гПаясно
11:00+18ЮЗ, 4 м/с59%1023 гПаясно
12:00+19ЮЗ, 5 м/с64%1024 гПаясно
13:00+19ЮЗ, 6 м/с62%1024 гПаясно
14:00+19ЮЗ, 6 м/с61%1023 гПаясно
15:00+18ЮЗ, 7 м/с66%1024 гПамалооблачно